SCP
0 0 0 0 0 0 -0 -0 -0 0 -0 0 0 0 0 0 0 0 0 0 0 0 0 0 0 0 0 0 0 0 0 0 0 0 0 0 0 0 0 0 0 0 0 0
0 0 0 0 0 0 0 0 -0 -0 -0 0 0 0 0 0 0 0 0 0 0 0 0 0 0 0 0 0 0 0 0 0 0 0 0 0 0 0 0 0 0 0 0 0
0 0 0 0 0 -0 -0 0 0 0 0 0 0 0 0 0 0 0 0 0 0 0 0 0 0 0 0 0 0 0 0 0 0 0 0 0 0 0 0 0 0 0 0 0
0 0 0 0 0 0 0 0 0 0 0 0 0 0 0 0 0 0 0 0 0 0 0 0 0 0 0 0 0 0 0 0 0 0 0 0 0 0 0 0 0 0 0 0
0 0 0 0 0 0 0 0 0 0 0 0 0 0 0 0 0 0 0 0 0 0 0 0 0 0 0 0 0 0 0 0 0 0 0 0 0 0 0 0 0 0 0 0
0 0 0 0 0 0 0 0 0 0 0 0 0 0 0 0 0 0 0 0 0 0 0 0 0 0 0 0 0 0 0 0 0 0 0 0 0 0 0 0 0 0 0 0
0 0 0 0 0 0 0 0 0 0 0 0 0 0 0 0 0 0 0 0 0 0 0 0 0 0 0 0 0 0 0 0 0 0 0 0 0 0 0 0 0 0 0 0
0 0 0 0 0 0 0 0 0 0 0 0 0 0 0 0 0 0 0 0 0 0 0 0 0 0 0 0 0 0 0 0 0 0 0 0 0 0 0 0 0 0 0 0
0 0 0 0 0 0 0 0 0 0 0 0 0 0 0 0 0 0 0 0 0 0 0 0 0 0 0 0 0 0 0 0 0 0 0 0 0 0 0 0 0 0 0 0
0 0 0 0 0 0 0 0 0 0 0 0 0 0 0 0 0 0 0 0 0 0 0 0 0 0 0 0 0 0 0 0 0 0 0 0 0 0 0 0 0 0 0 0
0 0 0 0 0 0 0 0 0 0 0 0 0 0 0 0 0 0 0 0 0 0 0 0 0 0 0 0 0 0 0 0 0 0 0 0 0 0 0 0 0 0 0 0
0 0 0 0 0 0 0 0 0 0 0 0 0 0 0 0 0 0 0 0 0 0 0 -0 0 0 0 0 0 0 0 0 0 0 0 0 0 0 0 0 0 0 0 0
0 0 0 0 0 0 0 0 0 0 0 0 0 0 0 0 0 0 0 0 0 -0 -0 -0 0 0 0 0 0 0 0 0 0 0 0 0 0 0 0 0 0 0 0 0
0 0 0 0 0 0 0 0 0 0 0 0 0 0 0 0 0 0 0 0 0 -0 0 0 0 0 0 0 0 0 0 0 0 0 0 0 0 0 0 0 0 0 0 0
0 0 0 0 0 0 0 0 0 0 0 0 0 0 0 0 0 0 0 0 0 0 0 0 0 0 0 0 0 0 0 0 0 0 0 0 0 0 0 0 0 0 0 0
0 0 0 0 0 0 0 0 0 0 0 0 0 0 0 0 0 0 0 0 0 0 0 0 0 0 0 0 0 0 0 0 0 0 0 0 0 0 0 0 0 0 0 0
0 0 0 0 0 0 0 0 0 0 0 0 0 0 0 0 0 0 0 0 0 0 0 0 0 0 0 0 0 0 0 0 0 0 0 0 0 0 0 0 0 0 0 0
0 0 0 0 0 0 0 0 0 0 0 0 0 0 0 0 0 0 0 0 0 0 0 0 0 0 0 0 0 0 0 0 0 0 0 0 0 0 0 0 0 0 0 0
0 0 0 0 0 0 0 0 0 0 0 0 0 0 0 0 0 0 0 0 0 0 0 0 0 0 0 0 0 0 0 0 0 0 0 0 0 0 0 0 0 0 0 0
0 0 0 0 0 0 0 0 0 0 0 0 0 0 0 0 0 0 0 0 0 0 0 0 0 0 0 0 0 0 0 0 0 0 0 0 0 0 0 0 0 0 0 0
0 0 0 0 0 0 0 0 0 0 0 0 0 0 0 0 0 0 0 0 0 0 0 0 0 0 0 0 0 0 0 0 0 0 0 0 0 0 0 0 0 0 0 0
0 0 0 0 0 0 0 0 0 0 0 0 0 0 0 0 0 0 0 0 0 0 0 0 0 0 0 0 0 0 0 0 0 0 0 0 0 0 0 0 0 0 0 0
0 0 0 0 0 0 0 0 0 0 0 0 0 0 0 0 0 0 0 0 0 0 0 0 0 0 0 0 0 0 0 0 0 0 0 0 0 0 0 0 0 0 0 0
0 0 0 0 0 0 0 0 0 0 0 0 0 0 0 0 0 0 0 0 0 0 0 0 0 0 0 0 0 0 0 0 0 0 0 0 0 0 0 0 0 0 0 0
0 0 0 0 0 0 0 0 0 0 0 0 0 0 0 0 0 0 0 0 0 0 0 0 0 0 0 0 0 0 0 0 0 0 0 0 0 0 0 0 0 0 0 0
0 0 0 0 0 0 0 0 0 0 0 0 0 0 0 0 0 0 0 0 0 0 0 0 0 0 0 0 0 0 0 0 0 0 0 0 0 0 0 0 0 0 0 0
0 0 0 0 0 0 0 0 0 0 0 0 0 0 0 0 0 0 0 0 0 0 0 0 0 0 0 0 0 0 0 0 0 0 0 0 0 0 0 0 0 0 0 0
Wind_Speed_500mb
29 11 16 17 18 20 31 34 30 24 30 20 14 10 17 22 24 32 35 42 46 44 42 40 38 37 35 23 18 14 19 18 19 21 21 21 22 26 29 31 32 33 34 35
11 13 17 23 25 26 28 33 36 36 36 29 23 16 15 25 23 29 37 41 44 42 40 39 39 37 28 24 18 17 15 16 20 20 21 22 26 28 31 32 31 32 32 33
13 6 10 12 30 36 35 34 27 31 33 15 16 13 20 19 19 26 32 37 40 41 39 37 37 34 31 21 17 12 18 20 20 19 20 24 27 31 32 31 32 34 34 30
2 3 3 5 4 10 13 24 28 27 27 22 16 16 13 16 20 23 27 33 36 36 35 35 34 32 25 20 16 14 18 19 19 22 24 27 30 32 32 33 34 35 31 31
5 12 17 24 10 4 4 11 12 16 17 7 5 12 32 15 13 18 24 27 30 32 33 33 32 26 17 15 12 14 18 20 21 24 26 30 33 33 33 35 40 36 36 28
6 6 8 7 8 3 2 10 16 13 8 1 5 8 9 5 4 12 18 23 26 28 30 30 22 16 8 11 18 18 17 19 23 26 29 32 32 32 34 34 36 37 36 34
10 7 11 8 6 3 9 7 14 14 11 7 12 14 14 9 10 16 20 22 25 28 27 23 17 6 4 14 18 18 20 21 25 29 32 33 31 32 36 37 44 42 45 42
6 6 11 14 13 3 9 12 11 14 14 16 17 14 11 7 11 14 20 23 25 25 24 12 5 0 9 13 20 20 23 26 29 31 30 29 31 34 35 37 39 37 40 36
12 2 10 11 8 5 13 19 20 23 23 22 23 18 10 7 12 16 21 20 20 19 14 9 1 14 19 17 20 26 29 28 29 29 29 30 33 35 38 34 36 37 33 32
3 7 7 3 6 9 13 16 20 19 20 21 26 22 8 11 19 22 21 19 17 13 8 5 8 20 25 27 29 26 27 28 29 29 31 31 31 31 39 35 39 36 34 31
11 16 6 14 10 17 20 18 17 12 14 13 9 6 17 19 22 23 23 18 14 7 3 13 21 28 25 22 25 26 28 29 30 30 29 32 34 36 39 43 42 39 35 28
3 10 9 14 16 18 13 14 12 9 17 21 19 23 30 30 30 24 18 11 7 5 12 21 22 22 23 24 25 29 31 29 30 33 32 34 35 42 42 49 47 48 45 48
4 8 5 8 19 20 21 22 24 26 26 30 30 32 33 31 21 14 9 4 7 16 19 22 26 27 27 31 34 37 37 37 37 33 35 39 49 46 47 43 49 47 45 45
5 5 11 19 15 20 24 26 28 35 37 35 36 29 22 18 12 2 10 13 16 20 24 25 28 31 30 32 34 40 43 43 44 38 39 44 49 52 51 48 52 51 45 46
13 18 23 23 22 25 27 30 34 36 31 26 20 16 7 3 7 10 12 17 21 24 27 28 32 36 37 41 46 47 45 45 45 49 53 54 49 47 52 54 52 53 44 43
17 20 23 27 29 29 29 26 24 19 15 11 8 8 10 11 12 14 17 20 30 33 36 41 46 49 53 45 47 52 53 57 59 59 60 55 45 49 48 53 54 53 51 43
27 24 28 31 28 25 22 17 15 13 9 9 9 10 12 15 17 17 24 31 38 43 47 55 62 59 57 58 50 55 61 61 55 58 69 59 54 53 49 50 54 54 52 52
24 34 29 28 25 18 12 11 9 10 8 8 9 11 13 19 26 33 40 48 55 61 62 61 49 49 57 56 56 60 61 61 60 61 58 57 58 57 58 58 52 52 53 50
34 30 24 19 15 14 12 9 5 5 5 7 11 17 25 32 40 47 54 60 64 62 48 48 53 60 57 59 60 62 58 60 60 59 54 51 54 55 56 59 54 53 49 47
25 21 19 16 12 10 7 6 9 4 8 16 25 33 39 44 48 52 54 57 42 43 56 53 60 61 60 62 58 60 57 52 54 52 48 49 53 55 55 53 51 48 46 45
20 17 13 10 10 9 8 6 5 10 19 27 33 36 41 47 49 52 49 48 44 45 55 62 58 60 61 59 62 61 62 54 50 43 43 47 52 52 49 47 43 44 45 45
16 14 12 9 7 5 3 4 11 18 22 28 34 40 47 46 48 43 40 43 50 63 58 63 63 61 65 62 65 61 57 58 41 38 39 42 43 46 49 49 47 45 47 47
15 10 8 8 7 4 7 12 20 26 31 36 40 44 45 41 40 47 54 47 57 57 61 62 60 61 59 55 54 46 38 37 42 40 36 36 34 33 34 36 39 41 40 44
14 11 9 8 6 6 6 16 23 24 34 35 35 41 44 46 44 39 45 56 56 58 52 42 58 66 65 46 40 40 38 27 33 35 28 25 23 25 27 31 32 31 32 32
12 8 6 2 3 6 13 22 23 23 30 32 33 34 39 35 40 46 48 47 49 49 45 42 52 49 41 40 37 36 29 28 32 27 25 24 26 26 26 30 32 33 31 30
11 7 2 5 7 12 18 25 26 26 31 30 32 35 35 35 36 36 39 40 41 42 41 44 47 49 44 41 38 37 34 31 34 32 30 30 31 32 33 34 34 34 33 31
8 4 2 3 12 19 26 30 28 29 28 29 35 31 33 35 34 34 36 38 40 41 40 41 42 46 46 43 40 38 36 35 36 37 35 34 34 34 35 37 38 37 37 36
Wind_Direction_500mb
260 289 286 284 275 238 237 242 248 264 268 292 313 259 248 242 239 231 213 217 212 210 210 205 201 196 193 201 185 201 217 246 266 265 260 265 274 284 292 295 297 297 300 296
264 248 265 271 264 256 252 248 255 260 266 291 331 298 270 266 241 234 222 218 215 215 211 207 201 197 199 195 202 203 234 260 269 258 259 264 275 286 291 294 294 295 291 291
253 337 306 286 245 247 249 250 254 265 276 4 323 282 278 260 241 240 233 224 217 214 212 208 202 199 195 201 202 228 272 267 265 263 266 273 282 285 288 293 294 289 286 285
261 257 262 287 18 328 295 282 272 268 276 291 283 313 288 272 263 244 235 223 215 210 207 204 198 193 194 195 226 258 265 274 271 273 276 282 286 287 291 296 291 287 292 285
185 223 290 287 156 303 271 295 12 325 317 337 9 289 260 233 253 250 232 218 210 207 201 195 190 188 202 213 231 259 277 275 281 279 284 288 290 291 294 296 290 293 291 278
165 208 234 71 90 104 278 259 39 8 358 338 211 277 52 20 245 223 208 201 197 192 186 185 187 191 205 270 272 273 280 282 283 286 290 290 289 289 292 293 293 290 287 287
200 251 282 59 136 208 240 42 357 342 327 281 276 20 348 304 198 187 189 186 181 176 177 177 173 198 326 276 290 293 286 288 292 291 290 286 285 289 293 289 291 287 284 289
182 207 263 133 144 255 25 336 350 321 310 297 291 304 313 261 201 179 166 163 164 165 166 164 107 250 292 302 304 286 291 291 290 291 288 283 287 293 290 285 285 278 279 281
207 223 114 171 358 355 322 314 316 310 301 295 291 282 279 221 168 159 151 149 149 152 138 95 127 289 317 299 281 288 291 292 293 292 289 288 290 291 287 282 282 276 272 279
273 115 218 299 347 33 1 337 324 313 306 297 291 288 213 174 145 143 141 134 125 96 57 343 305 330 301 280 288 294 294 294 294 293 289 287 293 289 291 288 278 274 272 271
241 287 332 101 48 349 335 330 325 327 341 330 308 142 149 142 140 137 127 113 85 73 332 319 299 287 286 284 289 295 294 295 292 289 291 290 289 288 286 282 278 274 271 274
254 66 342 13 8 355 6 14 19 42 57 65 98 115 125 114 120 114 107 123 114 356 303 283 282 285 288 286 285 290 295 291 288 285 291 291 289 289 285 283 277 283 281 272
359 348 32 75 57 52 66 69 77 88 93 95 99 117 123 114 105 111 110 189 264 277 290 291 292 290 287 287 289 295 297 295 297 292 289 289 295 293 292 289 286 283 290 284
14 325 129 61 84 79 85 90 97 96 97 100 106 108 101 88 82 183 282 297 298 297 294 292 291 293 296 288 282 287 292 293 297 292 289 286 290 284 284 286 289 284 285 286
68 80 104 110 103 100 103 106 104 104 102 99 93 78 70 4 319 310 305 303 305 307 305 304 299 295 297 289 285 285 285 286 283 285 285 287 294 293 293 291 291 288 276 285
107 105 110 114 115 116 117 112 102 103 94 87 59 23 1 345 335 324 324 316 320 321 316 310 307 311 307 299 291 287 284 285 286 281 272 286 285 294 293 289 289 289 275 269
126 123 126 122 124 125 115 102 87 79 63 45 18 359 345 341 348 332 323 317 315 313 314 313 312 309 307 305 296 290 284 282 281 280 283 281 290 291 291 289 289 288 281 272
132 121 120 122 125 124 105 79 68 61 40 15 0 355 347 335 328 324 321 317 313 310 310 313 313 303 299 301 296 293 284 279 276 289 288 286 289 290 288 290 291 291 285 279
124 124 120 116 113 108 99 87 69 39 23 3 344 336 332 326 321 316 313 311 312 313 316 306 302 300 304 302 296 292 284 282 288 293 287 287 292 297 294 283 284 289 289 286
123 122 117 113 124 120 114 104 95 49 352 342 334 324 317 315 315 315 316 320 327 315 312 315 315 315 314 310 304 298 279 292 290 284 284 291 297 299 298 294 289 288 293 292
123 124 127 125 121 114 107 95 38 347 331 321 319 320 323 324 326 328 329 323 326 321 308 311 313 311 311 310 307 300 296 286 285 281 293 299 299 299 297 295 294 295 296 293
129 138 135 130 122 118 115 338 320 315 320 326 327 327 328 332 329 330 324 321 316 318 320 317 319 309 307 310 312 307 298 289 278 284 289 291 294 293 291 292 293 293 293 294
135 148 159 166 168 199 285 301 321 329 332 333 334 332 334 331 330 328 326 324 319 320 320 325 323 315 314 315 318 311 298 285 286 291 293 293 298 303 305 304 301 293 282 278
146 149 167 193 229 275 325 324 338 334 328 336 330 328 331 330 324 326 318 320 326 322 328 325 312 311 317 321 317 309 306 307 290 292 299 306 310 313 317 317 319 321 318 310
160 168 189 176 35 350 332 328 339 333 329 329 329 332 328 330 326 325 326 325 325 332 337 331 328 335 334 330 327 320 317 307 304 307 305 309 310 312 313 314 320 324 326 324
138 142 191 267 304 324 325 332 332 330 327 330 330 331 334 331 329 329 331 336 339 342 344 343 342 342 343 339 334 328 324 317 314 314 313 310 309 309 309 309 311 312 316 320
195 187 49 353 326 326 325 328 329 329 331 325 330 336 335 334 335 335 336 337 337 338 339 339 341 340 340 340 337 334 330 326 323 321 320 317 315 313 315 314 314 314 312 309
Wind_Speed_850mb
29 11 16 17 18 20 31 34 30 24 30 20 14 10 17 22 24 32 35 42 46 44 42 40 38 37 35 23 18 14 19 18 19 21 21 21 22 26 29 31 32 33 34 35
11 13 17 23 25 26 28 33 36 36 36 29 23 16 15 25 23 29 37 41 44 42 40 39 39 37 28 24 18 17 15 16 20 20 21 22 26 28 31 32 31 32 32 33
13 6 10 12 30 36 35 34 27 31 33 15 16 13 20 19 19 26 32 37 40 41 39 37 37 34 31 21 17 12 18 20 20 19 20 24 27 31 32 31 32 34 34 30
2 3 3 5 4 10 13 24 28 27 27 22 16 16 13 16 20 23 27 33 36 36 35 35 34 32 25 20 16 14 18 19 19 22 24 27 30 32 32 33 34 35 31 31
5 12 17 24 10 4 4 11 12 16 17 7 5 12 32 15 13 18 24 27 30 32 33 33 32 26 17 15 12 14 18 20 21 24 26 30 33 33 33 35 40 36 36 28
6 6 8 7 8 3 2 10 16 13 8 1 5 8 9 5 4 12 18 23 26 28 30 30 22 16 8 11 18 18 17 19 23 26 29 32 32 32 34 34 36 37 36 34
10 7 11 8 6 3 9 7 14 14 11 7 12 14 14 9 10 16 20 22 25 28 27 23 17 6 4 14 18 18 20 21 25 29 32 33 31 32 36 37 44 42 45 42
6 6 11 14 13 3 9 12 11 14 14 16 17 14 11 7 11 14 20 23 25 25 24 12 5 0 9 13 20 20 23 26 29 31 30 29 31 34 35 37 39 37 40 36
12 2 10 11 8 5 13 19 20 23 23 22 23 18 10 7 12 16 21 20 20 19 14 9 1 14 19 17 20 26 29 28 29 29 29 30 33 35 38 34 36 37 33 32
3 7 7 3 6 9 13 16 20 19 20 21 26 22 8 11 19 22 21 19 17 13 8 5 8 20 25 27 29 26 27 28 29 29 31 31 31 31 39 35 39 36 34 31
11 16 6 14 10 17 20 18 17 12 14 13 9 6 17 19 22 23 23 18 14 7 3 13 21 28 25 22 25 26 28 29 30 30 29 32 34 36 39 43 42 39 35 28
3 10 9 14 16 18 13 14 12 9 17 21 19 23 30 30 30 24 18 11 7 5 12 21 22 22 23 24 25 29 31 29 30 33 32 34 35 42 42 49 47 48 45 48
4 8 5 8 19 20 21 22 24 26 26 30 30 32 33 31 21 14 9 4 7 16 19 22 26 27 27 31 34 37 37 37 37 33 35 39 49 46 47 43 49 47 45 45
5 5 11 19 15 20 24 26 28 35 37 35 36 29 22 18 12 2 10 13 16 20 24 25 28 31 30 32 34 40 43 43 44 38 39 44 49 52 51 48 52 51 45 46
13 18 23 23 22 25 27 30 34 36 31 26 20 16 7 3 7 10 12 17 21 24 27 28 32 36 37 41 46 47 45 45 45 49 53 54 49 47 52 54 52 53 44 43
17 20 23 27 29 29 29 26 24 19 15 11 8 8 10 11 12 14 17 20 30 33 36 41 46 49 53 45 47 52 53 57 59 59 60 55 45 49 48 53 54 53 51 43
27 24 28 31 28 25 22 17 15 13 9 9 9 10 12 15 17 17 24 31 38 43 47 55 62 59 57 58 50 55 61 61 55 58 69 59 54 53 49 50 54 54 52 52
24 34 29 28 25 18 12 11 9 10 8 8 9 11 13 19 26 33 40 48 55 61 62 61 49 49 57 56 56 60 61 61 60 61 58 57 58 57 58 58 52 52 53 50
34 30 24 19 15 14 12 9 5 5 5 7 11 17 25 32 40 47 54 60 64 62 48 48 53 60 57 59 60 62 58 60 60 59 54 51 54 55 56 59 54 53 49 47
25 21 19 16 12 10 7 6 9 4 8 16 25 33 39 44 48 52 54 57 42 43 56 53 60 61 60 62 58 60 57 52 54 52 48 49 53 55 55 53 51 48 46 45
20 17 13 10 10 9 8 6 5 10 19 27 33 36 41 47 49 52 49 48 44 45 55 62 58 60 61 59 62 61 62 54 50 43 43 47 52 52 49 47 43 44 45 45
16 14 12 9 7 5 3 4 11 18 22 28 34 40 47 46 48 43 40 43 50 63 58 63 63 61 65 62 65 61 57 58 41 38 39 42 43 46 49 49 47 45 47 47
15 10 8 8 7 4 7 12 20 26 31 36 40 44 45 41 40 47 54 47 57 57 61 62 60 61 59 55 54 46 38 37 42 40 36 36 34 33 34 36 39 41 40 44
14 11 9 8 6 6 6 16 23 24 34 35 35 41 44 46 44 39 45 56 56 58 52 42 58 66 65 46 40 40 38 27 33 35 28 25 23 25 27 31 32 31 32 32
12 8 6 2 3 6 13 22 23 23 30 32 33 34 39 35 40 46 48 47 49 49 45 42 52 49 41 40 37 36 29 28 32 27 25 24 26 26 26 30 32 33 31 30
11 7 2 5 7 12 18 25 26 26 31 30 32 35 35 35 36 36 39 40 41 42 41 44 47 49 44 41 38 37 34 31 34 32 30 30 31 32 33 34 34 34 33 31
8 4 2 3 12 19 26 30 28 29 28 29 35 31 33 35 34 34 36 38 40 41 40 41 42 46 46 43 40 38 36 35 36 37 35 34 34 34 35 37 38 37 37 36
Wind_Direction_850mb
260 289 286 284 275 238 237 242 248 264 268 292 313 259 248 242 239 231 213 217 212 210 210 205 201 196 193 201 185 201 217 246 266 265 260 265 274 284 292 295 297 297 300 296
264 248 265 271 264 256 252 248 255 260 266 291 331 298 270 266 241 234 222 218 215 215 211 207 201 197 199 195 202 203 234 260 269 258 259 264 275 286 291 294 294 295 291 291
253 337 306 286 245 247 249 250 254 265 276 4 323 282 278 260 241 240 233 224 217 214 212 208 202 199 195 201 202 228 272 267 265 263 266 273 282 285 288 293 294 289 286 285
261 257 262 287 18 328 295 282 272 268 276 291 283 313 288 272 263 244 235 223 215 210 207 204 198 193 194 195 226 258 265 274 271 273 276 282 286 287 291 296 291 287 292 285
185 223 290 287 156 303 271 295 12 325 317 337 9 289 260 233 253 250 232 218 210 207 201 195 190 188 202 213 231 259 277 275 281 279 284 288 290 291 294 296 290 293 291 278
165 208 234 71 90 104 278 259 39 8 358 338 211 277 52 20 245 223 208 201 197 192 186 185 187 191 205 270 272 273 280 282 283 286 290 290 289 289 292 293 293 290 287 287
200 251 282 59 136 208 240 42 357 342 327 281 276 20 348 304 198 187 189 186 181 176 177 177 173 198 326 276 290 293 286 288 292 291 290 286 285 289 293 289 291 287 284 289
182 207 263 133 144 255 25 336 350 321 310 297 291 304 313 261 201 179 166 163 164 165 166 164 107 250 292 302 304 286 291 291 290 291 288 283 287 293 290 285 285 278 279 281
207 223 114 171 358 355 322 314 316 310 301 295 291 282 279 221 168 159 151 149 149 152 138 95 127 289 317 299 281 288 291 292 293 292 289 288 290 291 287 282 282 276 272 279
273 115 218 299 347 33 1 337 324 313 306 297 291 288 213 174 145 143 141 134 125 96 57 343 305 330 301 280 288 294 294 294 294 293 289 287 293 289 291 288 278 274 272 271
241 287 332 101 48 349 335 330 325 327 341 330 308 142 149 142 140 137 127 113 85 73 332 319 299 287 286 284 289 295 294 295 292 289 291 290 289 288 286 282 278 274 271 274
254 66 342 13 8 355 6 14 19 42 57 65 98 115 125 114 120 114 107 123 114 356 303 283 282 285 288 286 285 290 295 291 288 285 291 291 289 289 285 283 277 283 281 272
359 348 32 75 57 52 66 69 77 88 93 95 99 117 123 114 105 111 110 189 264 277 290 291 292 290 287 287 289 295 297 295 297 292 289 289 295 293 292 289 286 283 290 284
14 325 129 61 84 79 85 90 97 96 97 100 106 108 101 88 82 183 282 297 298 297 294 292 291 293 296 288 282 287 292 293 297 292 289 286 290 284 284 286 289 284 285 286
68 80 104 110 103 100 103 106 104 104 102 99 93 78 70 4 319 310 305 303 305 307 305 304 299 295 297 289 285 285 285 286 283 285 285 287 294 293 293 291 291 288 276 285
107 105 110 114 115 116 117 112 102 103 94 87 59 23 1 345 335 324 324 316 320 321 316 310 307 311 307 299 291 287 284 285 286 281 272 286 285 294 293 289 289 289 275 269
126 123 126 122 124 125 115 102 87 79 63 45 18 359 345 341 348 332 323 317 315 313 314 313 312 309 307 305 296 290 284 282 281 280 283 281 290 291 291 289 289 288 281 272
132 121 120 122 125 124 105 79 68 61 40 15 0 355 347 335 328 324 321 317 313 310 310 313 313 303 299 301 296 293 284 279 276 289 288 286 289 290 288 290 291 291 285 279
124 124 120 116 113 108 99 87 69 39 23 3 344 336 332 326 321 316 313 311 312 313 316 306 302 300 304 302 296 292 284 282 288 293 287 287 292 297 294 283 284 289 289 286
123 122 117 113 124 120 114 104 95 49 352 342 334 324 317 315 315 315 316 320 327 315 312 315 315 315 314 310 304 298 279 292 290 284 284 291 297 299 298 294 289 288 293 292
123 124 127 125 121 114 107 95 38 347 331 321 319 320 323 324 326 328 329 323 326 321 308 311 313 311 311 310 307 300 296 286 285 281 293 299 299 299 297 295 294 295 296 293
129 138 135 130 122 118 115 338 320 315 320 326 327 327 328 332 329 330 324 321 316 318 320 317 319 309 307 310 312 307 298 289 278 284 289 291 294 293 291 292 293 293 293 294
135 148 159 166 168 199 285 301 321 329 332 333 334 332 334 331 330 328 326 324 319 320 320 325 323 315 314 315 318 311 298 285 286 291 293 293 298 303 305 304 301 293 282 278
146 149 167 193 229 275 325 324 338 334 328 336 330 328 331 330 324 326 318 320 326 322 328 325 312 311 317 321 317 309 306 307 290 292 299 306 310 313 317 317 319 321 318 310
160 168 189 176 35 350 332 328 339 333 329 329 329 332 328 330 326 325 326 325 325 332 337 331 328 335 334 330 327 320 317 307 304 307 305 309 310 312 313 314 320 324 326 324
138 142 191 267 304 324 325 332 332 330 327 330 330 331 334 331 329 329 331 336 339 342 344 343 342 342 343 339 334 328 324 317 314 314 313 310 309 309 309 309 311 312 316 320
195 187 49 353 326 326 325 328 329 329 331 325 330 336 335 334 335 335 336 337 337 338 339 339 341 340 340 340 337 334 330 326 323 321 320 317 315 313 315 314 314 314 312 309